• In Österreich
  • Länderverzeichnis
  • Für 7 Tage
  • Wassertemperatur
  • Satellitenkarten
  • Wetterkarte
  • News
  • Widgets
  • user-avatar
    Anmelden

    Stündliche Wetter Grzybowo

    Heute, 23 Juni, Samstag

    Zeit Temperatur Niederschläge Wind Luftdruck Luftfeuchtigkeit
    00:00 +10°C° 0,2 mm 7 m/S 760 mmHg 87%
    01:00 +10°C° 0 mm 7 m/S 760 mmHg 88%
    02:00 +10°C° 0,3 mm 7 m/S 760 mmHg 88%
    03:00 +10°C° 0,3 mm 7 m/S 760 mmHg 88%
    04:00 +10°C° 0,3 mm 7 m/S 760 mmHg 89%
    05:00 +10°C° 0,1 mm 7 m/S 760 mmHg 86%
    06:00 +11°C° 0,1 mm 7 m/S 760 mmHg 83%
    07:00 +12°C° 0,1 mm 7 m/S 760 mmHg 81%
    08:00 +14°C° 0,2 mm 7 m/S 760 mmHg 76%
    09:00 +15°C° 0,2 mm 6 m/S 760 mmHg 71%
    10:00 +16°C° 0,2 mm 6 m/S 760 mmHg 67%
    11:00 +16°C° 0,1 mm 6 m/S 760 mmHg 64%
    12:00 +17°C° 0,1 mm 6 m/S 760 mmHg 62%
    13:00 +19°C° 0,1 mm 6 m/S 760 mmHg 59%
    14:00 +19°C° 0,1 mm 6 m/S 760 mmHg 58%
    15:00 +19°C° 0,1 mm 6 m/S 760 mmHg 56%
    16:00 +19°C° 0,1 mm 6 m/S 760 mmHg 54%
    17:00 +17°C° 0 mm 6 m/S 760 mmHg 59%
    18:00 +16°C° 0 mm 6 m/S 760 mmHg 64%
    19:00 +16°C° 0 mm 6 m/S 760 mmHg 69%
    20:00 +14°C° 0,1 mm 6 m/S 761 mmHg 75%
    21:00 +13°C° 0,1 mm 5 m/S 761 mmHg 82%
    22:00 +12°C° 0,1 mm 5 m/S 761 mmHg 88%
    23:00 +12°C° 0,1 mm 5 m/S 761 mmHg 90%

    Morgen, 24 Juni, Sonntag

    Zeit Temperatur Niederschläge Wind Luftdruck Luftfeuchtigkeit
    00:00 +12°C° 0,1 mm 5 m/S 761 mmHg 91%
    01:00 +10°C° 0,1 mm 5 m/S 761 mmHg 93%
    02:00 +12°C° 0,1 mm 5 m/S 761 mmHg 93%
    03:00 +12°C° 0,1 mm 5 m/S 761 mmHg 93%
    04:00 +12°C° 0,1 mm 5 m/S 761 mmHg 93%
    05:00 +13°C° 0,2 mm 6 m/S 761 mmHg 90%
    06:00 +14°C° 0,2 mm 6 m/S 761 mmHg 86%
    07:00 +15°C° 0,2 mm 6 m/S 761 mmHg 83%
    08:00 +16°C° 0,1 mm 6 m/S 761 mmHg 78%
    09:00 +17°C° 0,1 mm 6 m/S 762 mmHg 73%
    10:00 +17°C° 0,1 mm 6 m/S 762 mmHg 69%
    11:00 +19°C° 0,1 mm 6 m/S 762 mmHg 67%
    12:00 +19°C° 0,1 mm 6 m/S 762 mmHg 65%
    13:00 +19°C° 0,1 mm 6 m/S 762 mmHg 63%
    14:00 +19°C° 0,1 mm 6 m/S 762 mmHg 64%
    15:00 +19°C° 0,1 mm 6 m/S 762 mmHg 64%
    16:00 +19°C° 0,1 mm 5 m/S 762 mmHg 65%
    17:00 +17°C° 0 mm 5 m/S 761 mmHg 68%
    18:00 +17°C° 0 mm 5 m/S 761 mmHg 72%
    19:00 +17°C° 0 mm 4 m/S 761 mmHg 75%
    20:00 +15°C° 0 mm 4 m/S 762 mmHg 81%
    21:00 +13°C° 0 mm 3 m/S 762 mmHg 86%
    22:00 +13°C° 0 mm 2 m/S 762 mmHg 92%
    23:00 +13°C° 0,1 mm 2 m/S 762 mmHg 92%

    übermorgen, 25 Juni, Montag

    Zeit Temperatur Niederschläge Wind Luftdruck Luftfeuchtigkeit
    00:00 +12°C° 0,1 mm 3 m/S 762 mmHg 93%
    01:00 +12°C° 0,1 mm 3 m/S 762 mmHg 93%
    02:00 +12°C° 0,1 mm 3 m/S 762 mmHg 94%
    03:00 +11°C° 0,1 mm 4 m/S 762 mmHg 95%
    04:00 +11°C° 0,1 mm 4 m/S 762 mmHg 96%
    05:00 +13°C° 0 mm 4 m/S 763 mmHg 91%
    06:00 +14°C° 0 mm 4 m/S 763 mmHg 87%
    07:00 +17°C° 0 mm 4 m/S 763 mmHg 82%
    08:00 +17°C° 0 mm 5 m/S 763 mmHg 76%
    09:00 +19°C° 0 mm 5 m/S 763 mmHg 69%
    10:00 +21°C° 0 mm 5 m/S 763 mmHg 62%
    11:00 +21°C° 0 mm 5 m/S 764 mmHg 61%
    12:00 +22°C° 0 mm 5 m/S 764 mmHg 60%
    13:00 +22°C° 0 mm 5 m/S 764 mmHg 59%
    14:00 +22°C° 0 mm 5 m/S 764 mmHg 60%
    15:00 +21°C° 0 mm 5 m/S 764 mmHg 62%
    16:00 +21°C° 0 mm 5 m/S 764 mmHg 63%
    17:00 +20°C° 0 mm 4 m/S 764 mmHg 67%
    18:00 +20°C° 0 mm 4 m/S 765 mmHg 70%
    19:00 +19°C° 0 mm 4 m/S 765 mmHg 74%
    20:00 +17°C° 0 mm 3 m/S 765 mmHg 80%
    21:00 +16°C° 0 mm 3 m/S 766 mmHg 85%
    22:00 +13°C° 0 mm 3 m/S 766 mmHg 91%
    23:00 +14°C° 0 mm 2 m/S 766 mmHg 91%

    26 Juni, Dienstag

    Zeit Temperatur Niederschläge Wind Luftdruck Luftfeuchtigkeit
    00:00 +14°C° 0 mm 2 m/S 766 mmHg 92%
    01:00 +14°C° 0 mm 2 m/S 766 mmHg 92%
    02:00 +14°C° 0 mm 2 m/S 767 mmHg 93%
    03:00 +14°C° 0 mm 2 m/S 767 mmHg 93%
    04:00 +12°C° 0 mm 3 m/S 767 mmHg 93%
    05:00 +14°C° 0 mm 3 m/S 767 mmHg 88%
    06:00 +16°C° 0 mm 3 m/S 767 mmHg 83%
    07:00 +18°C° 0 mm 3 m/S 767 mmHg 78%
    08:00 +19°C° 0 mm 3 m/S 767 mmHg 71%
    09:00 +21°C° 0 mm 3 m/S 768 mmHg 64%
    10:00 +22°C° 0 mm 3 m/S 768 mmHg 57%
    11:00 +24°C° 0 mm 3 m/S 768 mmHg 56%
    12:00 +23°C° 0 mm 4 m/S 768 mmHg 54%
    13:00 +23°C° 0 mm 4 m/S 768 mmHg 53%
    14:00 +23°C° 0 mm 4 m/S 768 mmHg 53%
    15:00 +23°C° 0 mm 4 m/S 768 mmHg 53%
    16:00 +23°C° 0 mm 4 m/S 768 mmHg 52%
    17:00 +22°C° 0 mm 3 m/S 768 mmHg 58%
    18:00 +21°C° 0 mm 3 m/S 768 mmHg 64%
    19:00 +20°C° 0 mm 3 m/S 768 mmHg 69%
    20:00 +19°C° 0 mm 2 m/S 768 mmHg 75%
    21:00 +17°C° 0 mm 2 m/S 768 mmHg 80%
    22:00 +16°C° 0 mm 2 m/S 768 mmHg 86%
    23:00 +15°C° 0 mm 2 m/S 768 mmHg 86%

    27 Juni, Mittwoch

    Zeit Temperatur Niederschläge Wind Luftdruck Luftfeuchtigkeit
    00:00 +15°C° 0 mm 2 m/S 768 mmHg 86%
    01:00 +15°C° 0 mm 1 m/S 769 mmHg 86%
    02:00 +14°C° 0 mm 2 m/S 769 mmHg 86%
    03:00 +14°C° 0 mm 2 m/S 769 mmHg 86%
    04:00 +14°C° 0 mm 2 m/S 769 mmHg 86%
    05:00 +16°C° 0 mm 3 m/S 769 mmHg 79%
    06:00 +18°C° 0 mm 3 m/S 769 mmHg 73%
    07:00 +20°C° 0 mm 4 m/S 769 mmHg 66%
    08:00 +21°C° 0 mm 4 m/S 769 mmHg 57%
    09:00 +22°C° 0 mm 4 m/S 769 mmHg 49%
    10:00 +23°C° 0 mm 5 m/S 769 mmHg 40%
    11:00 +25°C° 0 mm 5 m/S 769 mmHg 39%
    12:00 +25°C° 0 mm 5 m/S 769 mmHg 39%
    13:00 +26°C° 0 mm 6 m/S 769 mmHg 38%
    14:00 +24°C° 0 mm 6 m/S 769 mmHg 41%
    15:00 +24°C° 0 mm 6 m/S 769 mmHg 45%
    16:00 +23°C° 0 mm 6 m/S 769 mmHg 48%
    17:00 +22°C° 0 mm 6 m/S 769 mmHg 54%
    18:00 +21°C° 0 mm 6 m/S 769 mmHg 59%
    19:00 +20°C° 0 mm 6 m/S 769 mmHg 65%
    20:00 +19°C° 0 mm 6 m/S 769 mmHg 71%
    21:00 +16°C° 0 mm 5 m/S 769 mmHg 77%
    22:00 +15°C° 0 mm 5 m/S 770 mmHg 83%
    23:00 +14°C° 0 mm 5 m/S 770 mmHg 85%

    28 Juni, Donnerstag

    Zeit Temperatur Niederschläge Wind Luftdruck Luftfeuchtigkeit
    00:00 +14°C° 0 mm 4 m/S 770 mmHg 88%
    01:00 +13°C° 0 mm 4 m/S 770 mmHg 90%
    02:00 +13°C° 0 mm 4 m/S 770 mmHg 91%
    03:00 +13°C° 0 mm 4 m/S 769 mmHg 91%
    04:00 +13°C° 0 mm 4 m/S 769 mmHg 91%
    05:00 +15°C° 0 mm 5 m/S 769 mmHg 85%
    06:00 +17°C° 0 mm 5 m/S 769 mmHg 79%
    07:00 +20°C° 0 mm 5 m/S 769 mmHg 72%
    08:00 +21°C° 0 mm 6 m/S 769 mmHg 65%
    09:00 +23°C° 0 mm 6 m/S 769 mmHg 59%
    10:00 +24°C° 0 mm 7 m/S 769 mmHg 52%
    11:00 +26°C° 0 mm 7 m/S 769 mmHg 51%
    12:00 +26°C° 0 mm 8 m/S 768 mmHg 49%
    13:00 +26°C° 0 mm 8 m/S 768 mmHg 48%
    14:00 +26°C° 0 mm 8 m/S 767 mmHg 47%
    15:00 +26°C° 0 mm 8 m/S 767 mmHg 47%
    16:00 +24°C° 0 mm 8 m/S 767 mmHg 46%
    17:00 +23°C° 0 mm 8 m/S 767 mmHg 50%
    18:00 +22°C° 0 mm 7 m/S 767 mmHg 53%
    19:00 +20°C° 0 mm 7 m/S 766 mmHg 56%
    20:00 +19°C° 0 mm 6 m/S 766 mmHg 63%
    21:00 +17°C° 0 mm 6 m/S 766 mmHg 69%
    22:00 +15°C° 0 mm 5 m/S 766 mmHg 76%
    23:00 +15°C° 0 mm 5 m/S 766 mmHg 80%
    Mehr zeigen